Destin, FL

9:46 PM CDT on March 27, 2017 (GMT -0500)
Destin-Fort Walton Beach

Weather History for KDTS - January, 2012

Change the Weather History Date:

Tuesday, January 3, 2012

  Actual Average Record
Temperature  
Mean Temperature 42 °F -  
Max Temperature 48 °F 58 °F 75 °F (2017)
Min Temperature 35 °F 43 °F 25 °F (2008)
Degree Days  
Heating Degree Days 24    
Moisture  
Dew Point 15 °F    
Average Humidity 35    
Maximum Humidity 57    
Minimum Humidity 24    
Precipitation  
Precipitation 0.00 in - - ()
Sea Level Pressure  
Sea Level Pressure 30.44 in    
Wind  
Wind Speed 17 mph (NNW)    
Max Wind Speed 25 mph    
Max Gust Speed 47 mph    
Visibility 10 miles    
Events      
Averages and records for this station are not official NWS values.
T = Trace of Precipitation, MM = Missing Value Source: NWS Daily Summary

Daily Weather History Graph

Daily Weather History Graph

Search for Another Location

Airport or City:

Trip Planner

Search our weather history database for the weather conditions in past years. The results will help you decide how hot, cold, wet, or windy it might be!

Date:

Astronomy

Jan. 03, 2012 Rise Set
Actual Time 6:43 AM CST 4:57 PM CST
Civil Twilight 6:16 AM CST 5:23 PM CST
Nautical Twilight 5:46 AM CST 5:53 PM CST
Astronomical Twilight 5:17 AM CST 6:23 PM CST
Moon 12:39 PM CST (1/3) 1:40 AM CST (1/3)
Length of Visible Light 11h 07m
Length of Day
10h 14m
Waxing Gibbous, 73% of the Moon is Illuminated
Jan 3
Waxing Gibbous
Jan 9
Full
Jan 16
Last Quarter
Jan 23
New
Jan 30
First Quarter

Hourly Weather History & Observations

Time (CST) Temp. Windchill Dew Point Humidity Pressure Visibility Wind Dir Wind Speed Gust Speed Precip Events Conditions
12:53 AM 42.1 °F 32.6 °F 12.0 °F 29% 30.40 in 10.0 mi NNW 23.0 mph 47.2 mph N/A   Clear
1:53 AM 39.9 °F 30.8 °F 12.0 °F 32% 30.41 in 10.0 mi NW 18.4 mph 35.7 mph N/A   Clear
2:53 AM 39.9 °F 30.2 °F 12.0 °F 32% 30.43 in 10.0 mi NNW 20.7 mph 35.7 mph N/A   Clear
3:53 AM 37.9 °F 28.5 °F 12.9 °F 36% 30.43 in 10.0 mi NW 17.3 mph 32.2 mph N/A   Clear
4:53 AM 37.0 °F 25.6 °F 12.9 °F 37% 30.45 in 10.0 mi NNW 24.2 mph 39.1 mph N/A   Clear
5:53 AM 36.0 °F 23.9 °F 12.9 °F 39% 30.47 in 10.0 mi NNW 25.3 mph 34.5 mph N/A   Clear
6:53 AM 35.1 °F 24.1 °F 14.0 °F 42% 30.50 in 10.0 mi NNW 19.6 mph 34.5 mph N/A   Clear
7:53 AM 36.0 °F 24.4 °F 14.0 °F 41% 30.52 in 10.0 mi NNW 23.0 mph 35.7 mph N/A   Clear
8:53 AM 37.9 °F 28.2 °F 12.9 °F 36% 30.52 in 10.0 mi NNW 18.4 mph 32.2 mph N/A   Clear
9:53 AM 39.9 °F 33.4 °F 12.0 °F 32% 30.52 in 10.0 mi North 10.4 mph 23.0 mph N/A   Clear
10:53 AM 42.1 °F 34.5 °F 12.9 °F 31% 30.49 in 10.0 mi North 15.0 mph 31.1 mph N/A   Clear
11:53 AM 43.0 °F 35.1 °F 14.0 °F 31% 30.45 in 10.0 mi North 17.3 mph 32.2 mph N/A   Clear
12:53 PM 46.0 °F 41.4 °F 12.9 °F 26% 30.43 in 10.0 mi North 9.2 mph 28.8 mph N/A   Clear
1:53 PM 46.9 °F - 12.9 °F 25% 30.41 in 10.0 mi NNW 17.3 mph 33.4 mph N/A   Clear
2:53 PM 48.0 °F - 14.0 °F 26% 30.40 in 10.0 mi NNW 16.1 mph 23.0 mph N/A   Clear
3:53 PM 46.9 °F - 12.0 °F 24% 30.41 in 10.0 mi NNW 20.7 mph 32.2 mph N/A   Clear
4:53 PM 44.1 °F 38.6 °F 14.0 °F 30% 30.41 in 10.0 mi ENE 10.4 mph 29.9 mph N/A   Clear
5:53 PM 43.0 °F 36.4 °F 15.1 °F 32% 30.43 in 10.0 mi North 12.7 mph 18.4 mph N/A   Clear
6:53 PM 43.0 °F 37.2 °F 16.0 °F 34% 30.43 in 10.0 mi North 10.4 mph 17.3 mph N/A   Clear
7:53 PM 42.1 °F 39.2 °F 18.0 °F 38% 30.43 in 10.0 mi Variable 4.6 mph - N/A   Clear
8:53 PM 39.9 °F 37.8 °F 18.0 °F 41% 30.43 in 10.0 mi North 3.5 mph - N/A   Clear
9:53 PM 39.9 °F 35.8 °F 19.0 °F 43% 30.43 in 10.0 mi Variable 5.8 mph - N/A   Clear
10:53 PM 39.0 °F 34.8 °F 19.9 °F 46% 30.43 in 10.0 mi Variable 5.8 mph - N/A   Clear
11:53 PM 37.9 °F 34.4 °F 24.1 °F 57% 30.43 in 10.0 mi NNE 4.6 mph - N/A   Clear